Home   Weather   47°30'N, 67°23'W   Past weeks
Flag for Canada

Past Weather in 47°30'N, 67°23'W, Canada — Yesterday and Last 2 Weeks

Now
68 °F

Mild.


Feels Like: 68 °F
Forecast: N/A
Wind: 3 mph from Northwest

Location: Riviere Du Loup

Current Time: Jun 24, 2019 at 4:44:42 pm

Latest Report: Jun 24, 2019 at 4:00 pm


Visibility: N/A

Pressure: 29.85 "Hg

Humidity: 34%

Dew Point: 38 °F

Location of 47°30'N, 67°23'WLocation

Past Weather in 47°30'N, 67°23'W — Graph

°F

47°30'N, 67°23'W Temperature Yesterday

Maximum temperature yesterday: 71 °F (at 5:00 pm)
Minimum temperature yesterday: 57 °F (at 11:00 pm)
Average temperature yesterday: 65 °F

High & Low Weather Summary for the Past Weeks

 TemperatureHumidityPressure
High73 °F (Jun 13, 2:00 pm)100% (Jun 14, 7:00 am)30.25 "Hg (Jun 14, 7:00 am)
Low44 °F (Jun 11, 5:00 am)25% (Jun 23, 3:00 pm)29.62 "Hg (Jun 21, 5:00 am)
Average58 °F69%29.84 "Hg
* Reported Jun 9 3:00 pm — Jun 24 3:00 pm, 47°30'N, 67°23'W. Weather by CustomWeather, © 2019

Note: Actual official high and low records may vary slightly from our data, if they occured in-between our weather recording intervals... More about our weather records

Advertising

47°30'N, 67°23'W Weather History for the Previous 24 Hours

Scroll right to see more
 ConditionsComfort  
Time TempWeatherWind HumidityBarometerVisibility
3:00 pm
Mon, Jun 24
67 °FMild.5 mph32%29.85 "HgN/A
2:00 pm65 °FMild.6 mph33%29.85 "HgN/A
1:00 pm62 °FMild.7 mph35%29.87 "HgN/A
12:00 pm61 °FRefreshingly cool.8 mph40%29.87 "HgN/A
11:00 am59 °FRefreshingly cool.7 mph42%29.88 "HgN/A
10:00 am57 °FRefreshingly cool.9 mph45%29.88 "HgN/A
9:00 am55 °FRefreshingly cool.8 mph46%29.88 "HgN/A
8:00 am54 °FCool.6 mph53%29.87 "HgN/A
7:00 am51 °FCool.6 mph60%29.85 "HgN/A
6:00 am45 °FCool.1 mph67%29.84 "HgN/A
5:00 am47 °FCool.2 mph71%29.84 "HgN/A
4:00 am48 °FCool.5 mph69%29.83 "HgN/A
3:00 am51 °FCool.5 mph62%29.81 "HgN/A
2:00 am53 °FCool.6 mph53%29.81 "HgN/A
1:00 am53 °FCool.2 mph54%29.79 "HgN/A
12:00 am55 °FRefreshingly cool.2 mph50%29.78 "HgN/A
11:00 pm
Sun, Jun 23
57 °FRefreshingly cool.2 mph45%29.77 "HgN/A
10:00 pm61 °FRefreshingly cool.6 mph37%29.75 "HgN/A
9:00 pm63 °FMild.8 mph34%29.73 "HgN/A
8:00 pm66 °FMild.12 mph30%29.71 "HgN/A
7:00 pm69 °FMild.10 mph30%29.69 "HgN/A
6:00 pm70 °FMild.12 mph27%29.67 "HgN/A
5:00 pm71 °FMild.14 mph27%29.66 "HgN/A
4:00 pm71 °FMild.14 mph27%29.66 "HgN/A
Weather by CustomWeather, © 2019

See weather overview